Regional Weather Roundup
Issued by NWS

Home | Current Version | Previous Version | Text Only | Print | Product List | Glossary On
Versions: 1 2 3 4 5 6 7 8 9 10 11 12 13 14 15 16 17 18 19 20 21 22 23 24 25 26 27 28 29 30 31 32 33 34 35 36 37 38 39 40 41 42 43 44 45 46 47 48 49 50
000
ASUS44 KMEG 300910
RWRTN
TENNESSEE HOURLY STATE WEATHER ROUNDUP
NATIONAL WEATHER SERVICE MEMPHIS TN
300 AM CST FRI JAN 30 2015

TNZ002-004-019-021-049-052-054-088>092-301000-
WEST TENNESSEE

CITY           SKY/WX    TMP DP  RH WIND       PRES   REMARKS
MEMPHIS INTL   MOCLDY    41  29  62 N9        30.42S
NWS MEMPHIS      N/A     41 N/A N/A MISG        N/A
JACKSON        CLOUDY    40  27  59 N12       30.42R WCI  33
DYERSBURG      CLOUDY    39  19  45 N12G20    30.46R WCI  32
UNION CITY     CLOUDY    36  27  69 N13       30.43R WCI  27
PARIS          CLOUDY    34  27  75 N9        30.41R WCI  26
SAVANNAH       CLOUDY    39  27  60 NW8       30.38S WCI  34
$$

TNZ008-025-027-028-033-062-065-066-301000-
NORTH MIDDLE TENNESSEE

CITY           SKY/WX    TMP DP  RH WIND       PRES   REMARKS
NASHVILLE      CLOUDY    38  29  70 NW12      30.37R WCI  30
CLARKSVILLE    CLOUDY    35  27  72 N13       30.39S WCI  26
SMYRNA         CLOUDY    37  31  79 N14       30.37R WCI  28
COOKEVILLE     MOCLDY    36  32  87 N8        30.29R WCI  29
CROSSVILLE     CLOUDY    34  26  72 N14       30.25R WCI  25
$$

TNZ061-075-076-078-094-096-097-301000-
SOUTH MIDDLE TENNESSEE

CITY           SKY/WX    TMP DP  RH WIND       PRES   REMARKS
FAYETTEVILLE   CLOUDY    36  27  69 MISG      30.31S
TULLAHOMA      CLOUDY    36  27  69 N8        30.31S WCI  29
WINCHESTER     CLOUDY    36  28  75 NW7       30.32R WCI  30
MCMINNVILLE    CLOUDY    36  32  87 N9        30.31S WCI  29
COLUMBIA       CLOUDY    37  36  93 N9        30.34R WCI  31
SHELBYVILLE    CLOUDY    37  30  75 NW12      30.34S WCI  30
$$

TNZ017-018-042-046-047-301000-
NORTHEAST TENNESSEE

CITY           SKY/WX    TMP DP  RH WIND       PRES   REMARKS
TRI CITIES     CLOUDY    36  27  69 NW16G22   30.16R WCI  26
ELIZABETHTON   LGT RAIN  34  28  80 W8        30.13R WCI  27
$$

TNZ012-013-036-069-073-074-301000-
CENTRAL EAST TENNESSEE

CITY           SKY/WX    TMP DP  RH WIND       PRES   REMARKS
KNOXVILLE      CLOUDY    38  26  62 NW7       30.25R WCI  33
OAK RIDGE      CLOUDY    38  26  62 VRB7      30.27S WCI  33
GATLINBURG     CLOUDY    36  27  69 W9        30.24R WCI  29
MORRISTOWN     CLOUDY    34  30  86 NW8       30.22R WCI  27
$$

TNZ083-085-099-301000-
SOUTHEAST TENNESSEE

CITY           SKY/WX    TMP DP  RH WIND       PRES   REMARKS
CHATTANOOGA    CLOUDY    41  28  60 NW16      30.28S
$$

SKY/WX REPORTED AS FAIR MEANS FEW OR NO CLOUDS BELOW
12 THOUSAND FEET.



USA.gov is the U.S. government's official web portal to all federal, state and local government web resources and services.